Location: Ch�tillon
(48.8024°N, 2.2935°E)
Time: 11:57:25
(UTC+00:00)

X-37B - Visible Passes

Search period start: 26 January 2022 00:00
Search period end: 05 February 2022 00:00
Orbit: 334 x 337 km, 45.0° (Epoch: 11 January)

Date Brightness Start Highest point End Pass type
(mag) Time Alt. Az. Time Alt. Az. Time Alt. Az.
27 Jan 3.6 19:11:00 10° SW 19:11:01 10° SW 19:11:01 10° SW visible
28 Jan 2.6 17:57:06 10° S 17:58:37 13° SSE 17:59:29 12° SE visible
29 Jan 1.9 18:16:26 10° SW 18:18:46 23° SSE 18:19:08 22° SSE visible
30 Jan 1.6 18:36:25 10° WSW 18:38:45 32° S 18:38:45 32° S visible
31 Jan 2.1 17:21:53 10° SW 17:24:12 22° SSE 17:26:31 10° ESE visible
31 Jan 2.2 18:56:38 10° WSW 18:58:21 28° SW 18:58:21 28° SW visible
01 Feb 1.6 17:41:51 10° SW 17:44:26 32° S 17:46:43 12° ESE visible
01 Feb 3.2 19:16:59 10° WSW 19:17:57 18° WSW 19:17:57 18° WSW visible
02 Feb 1.3 18:02:04 10° WSW 18:04:44 38° S 18:06:20 19° ESE visible
02 Feb 3.9 19:37:28 10° WSW 19:37:34 11° WSW 19:37:34 11° WSW visible
03 Feb 1.5 18:22:25 10° WSW 18:25:03 34° S 18:25:59 26° SSE visible
04 Feb 2.1 18:42:54 10° WSW 18:45:18 25° SSW 18:45:41 24° S visible
